FW0286 Weather Reports


time (UTC)temp
C
wind
direction
speed
KPH
gust
KPH
rain 1hr
cm
rain 24hr
cm
rain mn
cm
humidity
%
barometer
mb
20260508214245 23 12 0.0 0.0 0.00 0.00 0.00 43 1014.1
20260508213749 23 11 0.0 0.0 0.00 0.00 0.00 43 1014.1
20260508213744 23 11 0.0 0.0 0.00 0.00 0.00 42 1014.2
20260508212743 23 11 0.0 0.0 0.00 0.00 0.00 42 1013.9
20260508212244 23 11 0.0 0.0 0.00 0.00 0.00 43 1014.0
20260508211744 23 11 0.0 0.0 0.00 0.00 0.00 42 1014.0
20260508211245 23 11 0.0 0.0 0.00 0.00 0.00 43 1013.9
20260508210744 23 12 0.0 0.0 0.00 0.00 0.00 44 1014.1
20260508210245 23 12 0.0 0.0 0.00 0.00 0.00 42 1014.2
20260508205744 22 12 0.0 0.0 0.00 0.00 0.00 45 1014.4
20260508205245 22 12 0.0 0.0 0.00 0.00 0.00 45 1014.3
20260508204746 21 12 0.0 6.4 0.00 0.00 0.00 43 1014.4
20260508204251 21 12 0.0 6.4 0.00 0.00 0.00 42 1014.2
20260508204245 21 12 0.0 6.4 0.00 0.00 0.00 43 1014.4
20260508203745 22 12 0.0 0.0 0.00 0.00 0.00 42 1014.3
20260508203244 21 12 0.0 6.4 0.00 0.00 0.00 42 1014.3
20260508202249 22 12 0.0 0.0 0.00 0.00 0.00 47 1014.3
20260508202244 22 12 0.0 0.0 0.00 0.00 0.00 45 1014.2
20260508201245 22 12 0.0 0.0 0.00 0.00 0.00 43 1014.5
20260508200745 22 12 0.0 0.0 0.00 0.00 0.00 45 1014.5
20260508200244 22 12 0.0 0.0 0.00 0.00 0.00 44 1014.6
20260508195751 22 12 0.0 0.0 0.00 0.00 0.00 43 1014.6
20260508195744 22 11 0.0 0.0 0.00 0.00 0.00 45 1014.6
20260508195245 21 12 0.0 0.0 0.00 0.00 0.00 43 1014.6
20260508194244 21 12 0.0 0.0 0.00 0.00 0.00 44 1014.8
20260508193746 21 11 0.0 0.0 0.00 0.00 0.00 42 1014.9
20260508193245 21 12 0.0 0.0 0.00 0.00 0.00 43 1014.9
20260508192744 21 12 0.0 0.0 0.00 0.00 0.00 46 1015.0
20260508192245 21 12 0.0 0.0 0.00 0.00 0.00 42 1015.0
20260508191743 22 12 0.0 0.0 0.00 0.00 0.00 46 1015.1
20260508191245 22 12 0.0 0.0 0.00 0.00 0.00 42 1015.3
20260508190743 22 12 0.0 0.0 0.00 0.00 0.00 43 1015.2
20260508190245 22 12 0.0 0.0 0.00 0.00 0.00 41 1015.3
20260508185743 22 12 0.0 0.0 0.00 0.00 0.00 40 1015.5
20260508185245 21 12 0.0 0.0 0.00 0.00 0.00 39 1015.5
20260508184749 22 12 0.0 0.0 0.00 0.00 0.00 41 1015.6
20260508184744 21 12 0.0 0.0 0.00 0.00 0.00 40 1015.4
20260508183743 21 12 0.0 0.0 0.00 0.00 0.00 38 1015.7
20260508183245 21 12 0.0 0.0 0.00 0.00 0.00 41 1015.8
20260508182749 21 12 0.0 0.0 0.00 0.00 0.00 40 1015.8
20260508182743 21 12 0.0 0.0 0.00 0.00 0.00 43 1015.8
20260508182402 21 12 0.0 0.0 0.00 0.00 0.00 40 1016.0
20260508181743 22 12 0.0 0.0 0.00 0.00 0.00 44 1016.0
20260508180743 21 12 0.0 0.0 0.00 0.00 0.00 43 1016.0
20260508180247 21 12 0.0 0.0 0.00 0.00 0.00 44 1016.3
20260508180243 21 12 0.0 0.0 0.00 0.00 0.00 41 1016.2
20260508175739 21 12 0.0 0.0 0.00 0.00 0.00 42 1016.1
20260508175237 21 12 0.0 0.0 0.00 0.00 0.00 42 1016.1
20260508174737 22 12 0.0 0.0 0.00 0.00 0.00 44 1016.1
20260508173737 21 12 0.0 0.0 0.00 0.00 0.00 47 1016.3
20260508173239 21 12 0.0 0.0 0.00 0.00 0.00 43 1016.5
20260508172738 21 12 0.0 0.0 0.00 0.00 0.00 48 1016.7
20260508172238 21 12 0.0 0.0 0.00 0.00 0.00 48 1016.8
20260508171737 20 12 0.0 0.0 0.00 0.00 0.00 44 1016.7
20260508171236 20 12 0.0 0.0 0.00 0.00 0.00 44 1016.7
20260508170740 20 11 0.0 0.0 0.00 0.00 0.00 46 1016.9
20260508170735 20 12 0.0 0.0 0.00 0.00 0.00 45 1016.9
20260508170356 20 12 0.0 9.7 0.00 0.00 0.00 47 1017.0
20260508165232 20 12 0.0 9.7 0.00 0.00 0.00 45 1017.2
20260508164742 19 12 0.0 0.0 0.00 0.00 0.00 50 1017.6
20260508164733 21 12 0.0 6.4 0.00 0.00 0.00 44 1017.2
20260508164231 21 12 0.0 0.0 0.00 0.00 0.00 42 1017.3
20260508163732 21 12 0.0 0.0 0.00 0.00 0.00 44 1017.4
20260508163233 20 11 0.0 0.0 0.00 0.00 0.00 49 1017.4
20260508162732 20 12 0.0 0.0 0.00 0.00 0.00 51 1017.5
20260508161732 19 12 0.0 0.0 0.00 0.00 0.00 53 1017.7
20260508161230 19 12 0.0 1.6 0.00 0.00 0.00 49 1017.8
20260508160731 18 12 0.0 1.6 0.00 0.00 0.00 49 1017.8
20260508160235 18 12 0.0 0.0 0.00 0.00 0.00 54 1018.0
20260508160231 18 12 0.0 0.0 0.00 0.00 0.00 49 1018.0
20260508155229 18 12 0.0 0.0 0.00 0.00 0.00 52 1018.0
20260508154729 18 12 0.0 1.6 0.00 0.00 0.00 49 1018.1
20260508154230 18 12 0.0 1.6 0.00 0.00 0.00 48 1018.2
20260508153731 18 12 0.0 1.6 0.00 0.00 0.00 49 1018.1
20260508153231 18 12 0.0 9.7 0.00 0.00 0.00 52 1018.2
20260508152735 18 12 0.0 14.5 0.00 0.03 0.00 52 1018.0
20260508152729 18 12 0.0 14.5 0.00 0.00 0.00 52 1018.0
20260508152348 18 12 0.0 6.4 0.00 0.05 0.00 54 1017.9
20260508151229 18 12 0.0 6.4 0.00 0.05 0.00 56 1017.9
20260508150730 18 12 0.0 8.0 0.00 0.05 0.00 53 1017.9
20260508150229 18 12 0.0 17.7 0.00 0.08 0.00 51 1017.9
20260508145730 18 12 0.0 17.7 0.00 0.08 0.00 55 1018.0
20260508145230 18 12 0.0 6.4 0.00 0.15 0.00 54 1018.0
20260508144730 18 12 0.0 3.2 0.00 0.25 0.00 59 1018.1
20260508144230 18 12 0.0 6.4 0.00 0.33 0.00 55 1018.0
20260508143729 17 12 0.0 9.7 0.00 0.41 0.00 56 1018.0
20260508143228 17 12 1.6 11.3 0.00 0.46 0.00 59 1018.0
20260508142727 17 12 0.0 11.3 0.00 0.56 0.00 58 1018.1
20260508142227 17 12 0.0 9.7 0.00 0.71 0.00 59 1018.2
20260508141851 17 12 0.0 12.9 0.00 1.47 0.00 64 1018.3
20260508141732 17 12 1.6 12.9 0.00 1.22 0.00 63 1018.2
20260508141727 17 12 0.0 12.9 0.00 0.94 0.00 63 1018.2
20260508140227 17 12 0.0 4.8 0.00 1.70 0.00 62 1018.3
20260508135729 17 12 0.0 4.8 0.00 1.91 0.00 64 1018.3
20260508135228 17 12 0.0 17.7 0.00 2.01 0.00 63 1018.2
20260508134725 17 12 1.6 17.7 0.00 2.03 0.00 66 1018.1
20260508134226 17 12 0.0 14.5 0.00 2.03 0.00 64 1018.0
20260508133725 17 12 0.0 0.0 0.00 2.06 0.00 67 1018.0
20260508133225 17 12 0.0 0.0 0.00 2.11 0.00 64 1017.9
20260508132725 17 12 0.0 0.0 0.00 2.13 0.00 70 1017.9
20260508132232 17 12 0.0 8.0 0.00 2.49 0.00 70 1017.6
20260508132226 17 12 0.0 1.6 0.00 2.21 0.00 68 1017.8
20260508131726 17 12 0.0 1.6 0.00 2.31 0.00 69 1017.7
20260508131227 17 12 0.0 8.0 0.00 2.39 0.00 68 1017.6
20260508130226 17 12 0.0 0.0 0.00 2.51 0.00 71 1017.6
20260508125723 17 12 0.0 0.0 0.00 2.54 0.00 72 1017.6
20260508125223 17 12 0.0 0.0 0.00 2.54 0.00 75 1017.6
20260508124723 17 12 0.0 0.0 0.00 2.54 0.00 76 1017.6
20260508124224 16 12 0.0 0.0 0.00 2.54 0.00 75 1017.7
20260508123724 16 12 0.0 0.0 0.00 2.54 0.00 77 1017.6
20260508123225 16 12 0.0 0.0 0.00 2.54 0.00 79 1017.5
20260508122724 16 12 0.0 0.0 0.00 2.54 0.00 80 1017.6
20260508122223 16 12 0.0 0.0 0.00 2.54 0.00 79 1017.5
20260508121723 16 12 0.0 1.6 0.00 2.54 0.00 83 1017.4
20260508121222 15 11 0.0 1.6 0.00 2.54 0.00 83 1017.3
20260508120721 15 12 0.0 0.0 0.00 2.54 0.00 84 1017.3
20260508120229 15 12 0.0 0.0 0.00 2.54 0.00 88 1017.0
20260508120222 15 12 0.0 0.0 0.00 2.54 0.00 85 1017.2
20260508115723 15 12 0.0 0.0 0.00 2.54 0.00 85 1017.1
20260508114723 15 12 0.0 0.0 0.00 2.54 0.00 90 1016.8
20260508114221 14 11 0.0 0.0 0.00 2.54 0.00 92 1016.7
20260508113722 13 11 0.0 0.0 0.00 2.54 0.00 92 1016.6
20260508113222 13 12 0.0 0.0 0.00 2.54 0.00 92 1016.5
20260508112725 13 11 0.0 0.0 0.00 2.57 0.00 94 1016.4
20260508112719 13 12 0.0 0.0 0.00 2.54 0.00 93 1016.3
20260508111720 13 11 0.0 0.0 0.00 2.57 0.00 95 1016.3
20260508111221 12 12 0.0 0.0 0.00 2.57 0.00 96 1016.3
20260508110720 12 12 0.0 0.0 0.00 2.57 0.00 96 1016.2
20260508110219 11 12 0.0 0.0 0.00 2.57 0.00 96 1016.1
20260508105725 11 12 0.0 0.0 0.00 2.57 0.00 96 1015.9
20260508105721 11 12 0.0 0.0 0.00 2.57 0.00 96 1016.0
20260508104719 11 12 0.0 0.0 0.00 2.57 0.00 96 1015.9
20260508104219 11 12 0.0 0.0 0.00 2.57 0.00 96 1015.8
20260508103718 11 12 0.0 0.0 0.00 2.59 0.00 96 1015.4
20260508103218 11 12 0.0 0.0 0.00 2.59 0.00 96 1015.4
20260508102719 11 12 0.0 0.0 0.00 2.59 0.00 96 1015.1
20260508102218 11 12 0.0 0.0 0.00 2.62 0.00 96 1015.2
20260508101717 11 12 0.0 0.0 0.00 2.62 0.00 96 1015.0
20260508101217 11 12 0.0 0.0 0.00 2.62 0.00 96 1015.0
20260508100718 11 12 0.0 0.0 0.00 2.62 0.00 96 1015.0
20260508100219 11 12 0.0 0.0 0.00 2.62 0.00 96 1014.9
20260508095722 12 12 0.0 0.0 0.00 2.62 0.00 96 1014.8
20260508095717 12 12 0.0 0.0 0.00 2.62 0.00 96 1014.9
20260508094716 12 12 0.0 0.0 0.00 2.62 0.00 96 1014.9
20260508094214 12 12 0.0 0.0 0.00 2.62 0.00 96 1014.8
20260508093720 12 12 0.0 0.0 0.00 2.64 0.00 96 1014.5
20260508093716 12 11 0.0 0.0 0.00 2.64 0.00 96 1014.6
20260508092720 12 12 0.0 0.0 0.00 2.64 0.00 96 1014.7
20260508092715 12 12 0.0 0.0 0.00 2.64 0.00 96 1014.6
20260508091722 12 12 0.0 0.0 0.00 2.67 0.00 96 1014.7
20260508091715 12 12 0.0 0.0 0.00 2.64 0.00 96 1014.6
20260508091214 12 12 0.0 0.0 0.00 2.67 0.00 96 1014.6
20260508090716 12 12 0.0 0.0 0.00 2.67 0.00 96 1014.6
20260508085720 12 12 0.0 0.0 0.00 2.69 0.00 95 1014.7
20260508085716 12 12 0.0 0.0 0.00 2.67 0.00 96 1014.7
20260508085334 12 12 0.0 0.0 0.00 2.69 0.00 95 1014.6
20260508084715 12 12 0.0 0.0 0.00 2.69 0.00 95 1014.6
20260508083720 12 12 0.0 0.0 0.00 2.69 0.00 96 1014.5
20260508083716 12 12 0.0 0.0 0.00 2.69 0.00 96 1014.6
20260508083213 12 12 0.0 0.0 0.00 2.69 0.00 96 1014.5
20260508082214 12 12 0.0 0.0 0.00 2.69 0.00 95 1014.5
20260508081710 12 12 0.0 0.0 0.00 2.69 0.00 95 1014.5
20260508081218 12 12 0.0 0.0 0.00 2.72 0.00 95 1014.5
20260508081212 12 12 0.0 0.0 0.00 2.72 0.00 95 1014.5
20260508080711 12 12 0.0 0.0 0.00 2.72 0.00 95 1014.5
20260508075710 12 12 0.0 0.0 0.00 2.72 0.00 95 1014.4
20260508075211 13 12 0.0 0.0 0.00 2.72 0.00 95 1014.2
20260508074711 13 12 0.0 0.0 0.00 2.72 0.00 95 1014.3
20260508074219 13 12 0.0 0.0 0.00 2.72 0.00 95 1014.1
20260508074212 13 12 0.0 0.0 0.00 2.72 0.00 94 1014.2
20260508073712 13 12 0.0 0.0 0.00 2.72 0.00 94 1014.2
20260508072711 13 11 0.0 0.0 0.00 2.72 0.00 95 1014.0
20260508072211 13 12 0.0 0.0 0.00 2.72 0.00 94 1014.0
20260508071713 13 12 0.0 0.0 0.00 2.72 0.00 94 1014.0
20260508071212 13 12 0.0 0.0 0.00 2.72 0.00 94 1014.0
20260508070712 13 12 0.0 0.0 0.00 2.72 0.00 93 1014.0
20260508070217 13 12 0.0 0.0 0.00 2.72 0.00 92 1013.9
20260508070211 13 12 0.0 0.0 0.00 2.72 0.00 93 1014.0
20260508065711 13 12 0.0 0.0 0.00 2.72 0.00 93 1014.0
20260508064711 14 12 0.0 0.0 0.00 2.72 0.00 94 1013.8
20260508064208 13 12 0.0 0.0 0.00 2.72 0.00 93 1013.8
20260508063828 13 12 0.0 0.0 0.00 2.72 0.00 93 1014.0
20260508063714 13 12 0.0 0.0 0.00 2.72 0.00 93 1013.9
20260508063709 13 12 0.0 0.0 0.00 2.72 0.00 93 1014.0
20260508062208 14 12 0.0 0.0 0.00 2.72 0.00 92 1014.0
20260508061707 14 12 0.0 0.0 0.00 2.72 0.00 92 1014.1
20260508061211 15 12 0.0 0.0 0.00 2.72 0.00 91 1014.2
20260508061205 14 12 0.0 0.0 0.00 2.72 0.00 92 1014.2
20260508060706 15 12 0.0 0.0 0.00 2.72 0.00 91 1014.3
20260508055705 15 12 0.0 0.0 0.00 2.72 0.00 91 1014.3
20260508055206 15 12 0.0 0.0 0.00 2.72 0.00 91 1014.2
20260508054706 15 12 0.0 0.0 0.00 2.72 0.00 91 1014.3
20260508054205 15 11 0.0 0.0 0.00 2.72 0.00 90 1014.1
20260508053711 15 12 0.0 0.0 0.00 2.72 0.00 90 1014.1
20260508053704 15 12 0.0 0.0 0.00 2.72 0.00 90 1014.1
20260508053205 15 12 0.0 0.0 0.00 2.72 0.00 90 1014.2
20260508052205 15 12 0.0 0.0 0.00 2.72 0.00 90 1014.1
20260508051706 15 12 0.0 0.0 0.00 2.72 0.00 89 1014.1
20260508051207 15 12 0.0 0.0 0.00 2.72 0.00 89 1014.2
20260508050705 15 12 0.0 0.0 0.00 2.72 0.00 89 1014.2
20260508050207 15 12 0.0 0.0 0.00 2.72 0.00 88 1014.2
20260508045706 15 12 0.0 0.0 0.00 2.72 0.00 89 1014.0
20260508044705 15 12 0.0 0.0 0.00 2.72 0.00 87 1014.0
20260508044204 15 12 0.0 0.0 0.00 2.72 0.00 88 1014.0
20260508043705 15 12 0.0 0.0 0.00 2.72 0.00 87 1014.0
20260508043206 15 12 0.0 0.0 0.00 2.72 0.00 87 1013.9
20260508042712 15 12 0.0 6.4 0.00 2.77 0.00 86 1013.6
20260508042705 15 12 0.0 1.6 0.00 2.74 0.00 87 1013.8
20260508042332 15 12 0.0 0.0 0.00 2.79 0.00 87 1013.7
20260508042207 15 11 0.0 6.4 0.00 2.74 0.00 87 1013.7
20260508040705 16 12 0.0 0.0 0.00 2.79 0.00 86 1013.6
20260508040204 16 12 0.0 0.0 0.00 2.79 0.00 86 1013.5
20260508035702 16 12 0.0 4.8 0.00 2.82 2.79 85 1013.5
20260508035208 16 12 0.0 4.8 0.00 2.82 2.79 84 1013.5
20260508035203 16 12 0.0 4.8 0.00 2.82 2.79 86 1013.5
20260508034204 16 12 0.0 4.8 0.00 2.84 2.79 84 1013.6
20260508033702 16 12 0.0 1.6 0.00 2.90 2.79 82 1013.4
20260508033203 16 12 0.0 1.6 0.00 2.95 2.79 82 1013.6
20260508032703 16 12 1.6 14.5 0.00 3.00 2.79 82 1013.6
20260508032203 16 12 1.6 14.5 0.00 3.00 2.79 83 1013.6
20260508031700 16 12 0.0 11.3 0.00 3.00 2.79 82 1013.5
20260508031201 16 11 0.0 3.2 0.00 3.00 2.79 81 1013.3
20260508030705 17 12 0.0 14.5 0.00 3.07 2.79 82 1013.3
20260508030700 17 12 0.0 14.5 0.00 3.02 2.79 83 1013.3
20260508030318 17 12 0.0 4.8 0.00 3.17 2.79 84 1013.2
20260508025701 17 12 0.0 4.8 0.00 3.12 2.79 82 1013.3
20260508025319 17 12 0.0 3.2 0.00 3.28 2.79 84 1012.9
20260508024702 17 11 0.0 3.2 0.00 3.23 2.79 82 1013.1
20260508024127 18 12 0.0 8.0 0.00 3.28 2.79 83 1012.0
20260508024006 18 12 0.0 8.0 0.00 3.28 2.79 84 1012.0
20260508023827 17 12 0.0 14.5 0.00 3.28 2.79 85 1012.3
20260508023753 17 0.0 0.0 0.00 3.28 2.79 83
20260508023738 17 12 0.0 6.4 0.00 3.28 2.79 84 1012.8
20260508023459 17 12 0.0 8.0 0.00 3.28 2.79 84 1012.1
20260508023452 17 12 0.0 8.0 0.00 3.28 2.79 82 1012.1
20260508023445 17 12 0.0 14.5 0.00 3.28 2.79 83 1012.1
20260508023319 17 12 0.0 9.7 0.00 3.28 2.79 83 1012.4
20260508023150 17 12 0.0 0.0 0.00 3.28 2.79 84 1012.5
20260508014636 18 12 0.0 12.9 0.00 3.28 2.79 82 1011.7
20260508014124 18 11 0.0 9.7 0.00 3.28 2.79 80 1011.2
20260508013617 19 12 1.6 14.5 0.00 3.28 2.79 79 1011.1
20260508013116 19 11 0.0 14.5 0.00 3.28 2.79 78 1011.0
20260508012621 21 12 0.0 1.6 0.00 3.28 2.79 80 1010.2
20260508012617 20 11 0.0 3.2 0.00 3.28 2.79 79 1010.7
20260508012110 20 12 0.0 1.6 0.00 3.28 2.79 78 1010.6
20260508011056 21 11 0.0 0.0 0.00 3.28 2.79 85 1010.1
20260508010556 21 11 0.0 0.0 0.00 3.28 2.79 83 1009.7
20260508010055 21 11 0.0 0.0 0.00 3.28 2.79 83 1009.7
20260508005552 21 11 0.0 0.0 0.00 3.28 2.79 82 1009.6
20260508005017 21 11 0.0 0.0 0.00 3.28 2.79 81 1009.4
20260508004452 22 11 0.0 0.0 0.00 3.28 2.79 80 1009.2
20260508003951 22 11 0.0 0.0 0.00 3.28 2.79 80 1008.8
20260508003427 22 11 0.0 0.0 0.00 3.28 2.79 80 1008.7
20260508002913 22 11 0.0 0.0 0.00 3.28 2.79 80 1008.6
20260508002406 22 11 0.0 0.0 0.00 3.28 2.79 80 1008.6
20260508001855 22 11 0.0 0.0 0.00 3.28 2.79 79 1008.6
20260508001346 22 11 0.0 0.0 0.00 3.28 2.79 79 1008.4
20260508000829 23 11 0.0 0.0 0.00 3.28 2.79 78 1008.1
20260508000825 22 11 0.0 0.0 0.00 3.28 2.79 78 1008.3
20260507235755 23 11 0.0 0.0 0.00 3.28 2.79 78 1008.1
20260507235251 23 11 0.0 0.0 0.00 3.28 2.79 77 1008.0
20260507235237 23 11 0.0 0.0 0.00 3.28 2.79 77 1007.9
20260507234227 23 11 0.0 0.0 0.00 3.28 2.79 76 1007.8
20260507233727 23 11 0.0 0.0 0.00 3.28 2.79 75 1007.9
20260507233215 23 11 0.0 0.0 0.00 3.28 2.79 75 1008.0
20260507232715 24 11 0.0 0.0 0.00 3.28 2.79 74 1007.8
20260507232156 24 11 0.0 0.0 0.00 3.28 2.79 73 1007.5
20260507231647 24 11 0.0 0.0 0.00 3.28 2.79 72 1007.7
20260507231124 24 11 0.0 1.6 0.00 3.28 2.79 71 1007.8
20260507230613 25 11 0.0 6.4 0.00 3.28 2.79 70 1007.8
20260507230105 25 11 0.0 6.4 0.00 3.28 2.79 70 1007.7
20260507225555 25 11 0.0 0.0 0.00 3.28 2.79 69 1007.6
20260507225051 25 11 0.0 0.0 0.00 3.28 2.79 68 1007.5
20260507224541 25 11 0.0 0.0 0.00 3.28 2.79 68 1007.4
20260507224041 25 12 0.0 0.0 0.00 3.28 2.79 68 1007.3
20260507223543 25 11 0.0 0.0 0.00 3.28 2.79 67 1007.3
20260507223539 25 11 0.0 0.0 0.00 3.28 2.79 68 1007.4
20260507222535 25 11 0.0 0.0 0.00 3.28 2.79 66 1007.4
20260507222030 25 11 0.0 9.7 0.00 3.28 2.79 66 1007.5
20260507222025 25 11 0.0 9.7 0.00 3.28 2.79 66 1007.4
20260507221453 26 11 0.0 6.4 0.00 3.28 2.79 65 1007.2
20260507221058 25 11 0.0 6.4 0.00 3.28 2.79 65 1007.4
20260507215929 26 11 0.0 0.0 0.00 3.28 2.79 67 1007.3
20260507215427 26 11 0.0 4.8 0.00 3.28 2.79 66 1007.3
20260507215408 26 11 0.0 4.8 0.00 3.28 2.79 67 1007.5
20260507214407 26 12 0.0 0.0 0.00 3.28 2.79 66 1007.4